Location: Alafon
(8.4500°N, 4.2333°E)
Time: 22:18:05
(UTC+00:00)

Explorer 7 - Pass Details

Date: 28 July 2021
Orbit: 484 x 676 km, 50.3° (Epoch: 18 September)

Event Time Altitude Azimuth Distance (km) Brightness Sun altitude
Rises 13:26:40 0° 344° (NNW) 2,914 10.7 64.3°
Reaches altitude 10° 13:29:26 10° 1° (N) 2,036 10.0 63.7°
Maximum altitude 13:33:01 21° 50° (NE) 1,458 9.1 62.9°
Drops below altitude 10° 13:36:41 10° 100° (E) 2,090 9.6 62.0°
Sets 13:39:32 0° 115° (ESE) 3,014 10.3 61.4°
